TimeCST,TemperatureF,Dew PointF,Humidity,Sea Level PressureIn,VisibilityMPH,Wind Direction,Wind SpeedMPH,Gust SpeedMPH,PrecipitationIn,Events,Conditions,WindDirDegrees,DateUTC
12:15 AM,26.6,19.4,74,30.12,10.0,SSW,3.5,-,N/A,,Clear,210,2014-02-27 06:15:00
12:35 AM,26.6,17.6,69,30.12,10.0,SSW,3.5,-,N/A,,Clear,200,2014-02-27 06:35:00
12:55 AM,26.6,17.6,69,30.12,10.0,South,4.6,-,N/A,,Clear,190,2014-02-27 06:55:00
1:15 AM,26.6,17.6,69,30.12,10.0,SSW,4.6,-,N/A,,Clear,210,2014-02-27 07:15:00
1:35 AM,26.6,17.6,69,30.12,10.0,SW,4.6,-,N/A,,Clear,220,2014-02-27 07:35:00
1:55 AM,24.8,19.4,80,30.12,10.0,SSW,5.8,-,N/A,,Clear,210,2014-02-27 07:55:00
2:15 AM,24.8,19.4,80,30.12,10.0,WSW,3.5,-,N/A,,Clear,240,2014-02-27 08:15:00
2:35 AM,24.8,19.4,80,30.12,10.0,SW,4.6,-,N/A,,Clear,230,2014-02-27 08:35:00
2:55 AM,23.0,17.6,80,30.12,10.0,SW,4.6,-,N/A,,Clear,230,2014-02-27 08:55:00
3:15 AM,23.0,19.4,86,30.11,10.0,SW,3.5,-,N/A,,Clear,230,2014-02-27 09:15:00
3:35 AM,23.0,19.4,86,30.11,10.0,Calm,Calm,-,N/A,,Clear,0,2014-02-27 09:35:00
3:55 AM,23.0,19.4,86,30.11,10.0,Calm,Calm,-,N/A,,Clear,0,2014-02-27 09:55:00
4:15 AM,23.0,19.4,86,30.11,10.0,Calm,Calm,-,N/A,,Clear,0,2014-02-27 10:15:00
4:35 AM,23.0,19.4,86,30.12,10.0,Calm,Calm,-,N/A,,Clear,0,2014-02-27 10:35:00
4:55 AM,23.0,19.4,86,30.12,10.0,Calm,Calm,-,N/A,,Clear,0,2014-02-27 10:55:00
5:15 AM,23.0,19.4,86,30.12,10.0,Calm,Calm,-,N/A,,Clear,0,2014-02-27 11:15:00
5:35 AM,23.0,19.4,86,30.12,10.0,Calm,Calm,-,N/A,,Clear,0,2014-02-27 11:35:00
5:55 AM,21.2,19.4,93,30.12,10.0,Calm,Calm,-,N/A,,Clear,0,2014-02-27 11:55:00
6:15 AM,21.2,19.4,93,30.12,10.0,Calm,Calm,-,N/A,,Clear,0,2014-02-27 12:15:00
6:35 AM,23.0,19.4,86,30.12,10.0,Calm,Calm,-,N/A,,Clear,0,2014-02-27 12:35:00
6:55 AM,23.0,21.2,93,30.13,10.0,Calm,Calm,-,N/A,,Clear,0,2014-02-27 12:55:00
7:15 AM,23.0,21.2,93,30.14,10.0,South,3.5,-,N/A,,Clear,180,2014-02-27 13:15:00
7:35 AM,26.6,23.0,86,30.14,10.0,Calm,Calm,-,N/A,,Clear,0,2014-02-27 13:35:00
7:55 AM,30.2,23.0,75,30.15,10.0,WSW,4.6,-,N/A,,Clear,240,2014-02-27 13:55:00
8:15 AM,30.2,23.0,75,30.16,10.0,WSW,3.5,-,N/A,,Clear,250,2014-02-27 14:15:00
8:35 AM,32.0,21.2,64,30.16,10.0,WSW,4.6,-,N/A,,Clear,250,2014-02-27 14:35:00
8:55 AM,32.0,21.2,64,30.16,10.0,West,4.6,-,N/A,,Clear,270,2014-02-27 14:55:00
9:15 AM,33.8,21.2,60,30.16,10.0,Calm,Calm,-,N/A,,Clear,0,2014-02-27 15:15:00
9:35 AM,35.6,15.8,44,30.16,10.0,West,4.6,-,N/A,,Clear,280,2014-02-27 15:35:00
9:55 AM,37.4,14.0,38,30.17,10.0,NW,9.2,16.1,N/A,,Clear,310,2014-02-27 15:55:00
10:15 AM,41.0,14.0,33,30.16,10.0,NNW,15.0,18.4,N/A,,Clear,340,2014-02-27 16:15:00
10:35 AM,39.2,14.0,36,30.16,10.0,North,12.7,-,N/A,,Clear,350,2014-02-27 16:35:00
10:55 AM,41.0,17.6,39,30.15,10.0,North,9.2,-,N/A,,Clear,350,2014-02-27 16:55:00
11:15 AM,41.0,15.8,36,30.15,10.0,NNW,6.9,10.4,N/A,,Clear,330,2014-02-27 17:15:00
11:35 AM,41.0,15.8,36,30.14,10.0,NNE,8.1,-,N/A,,Clear,20,2014-02-27 17:35:00
11:55 AM,42.8,17.6,36,30.13,10.0,NE,8.1,-,N/A,,Clear,40,2014-02-27 17:55:00
12:15 PM,42.8,17.6,36,30.13,10.0,NNW,6.9,-,N/A,,Clear,330,2014-02-27 18:15:00
12:35 PM,42.8,17.6,36,30.12,10.0,NNW,4.6,-,N/A,,Clear,330,2014-02-27 18:35:00
12:55 PM,42.8,17.6,36,30.12,10.0,North,6.9,-,N/A,,Clear,350,2014-02-27 18:55:00
1:15 PM,42.8,17.6,36,30.11,10.0,NNW,5.8,-,N/A,,Clear,340,2014-02-27 19:15:00
1:35 PM,44.6,17.6,34,30.10,10.0,NNE,5.8,-,N/A,,Clear,30,2014-02-27 19:35:00
1:55 PM,44.6,19.4,37,30.09,10.0,NNW,4.6,-,N/A,,Clear,330,2014-02-27 19:55:00
2:15 PM,44.6,17.6,34,30.08,10.0,West,5.8,-,N/A,,Clear,280,2014-02-27 20:15:00
2:35 PM,44.6,17.6,34,30.07,10.0,North,3.5,-,N/A,,Clear,350,2014-02-27 20:35:00
2:55 PM,46.4,17.6,32,30.07,10.0,Calm,Calm,-,N/A,,Clear,0,2014-02-27 20:55:00
3:15 PM,46.4,17.6,32,30.06,10.0,North,3.5,-,N/A,,Clear,350,2014-02-27 21:15:00
3:35 PM,46.4,17.6,32,30.05,10.0,Calm,Calm,-,N/A,,Clear,0,2014-02-27 21:35:00
3:55 PM,46.4,15.8,29,30.05,10.0,NW,4.6,-,N/A,,Clear,310,2014-02-27 21:55:00
4:15 PM,46.4,14.0,27,30.04,10.0,WNW,3.5,-,N/A,,Clear,300,2014-02-27 22:15:00
4:35 PM,46.4,15.8,29,30.04,10.0,NNW,4.6,-,N/A,,Clear,340,2014-02-27 22:35:00
4:55 PM,46.4,15.8,29,30.04,10.0,Calm,Calm,-,N/A,,Clear,0,2014-02-27 22:55:00
5:15 PM,44.6,15.8,31,30.04,10.0,Calm,Calm,-,N/A,,Clear,0,2014-02-27 23:15:00
5:35 PM,42.8,17.6,36,30.05,10.0,North,3.5,-,N/A,,Clear,10,2014-02-27 23:35:00
5:55 PM,41.0,19.4,42,30.05,10.0,North,3.5,-,N/A,,Clear,10,2014-02-27 23:55:00
6:15 PM,41.0,23.0,49,30.06,10.0,Calm,Calm,-,N/A,,Clear,0,2014-02-28 00:15:00
6:35 PM,37.4,23.0,56,30.06,10.0,Calm,Calm,-,N/A,,Clear,0,2014-02-28 00:35:00
6:55 PM,35.6,24.8,65,30.06,10.0,NNE,4.6,-,N/A,,Clear,30,2014-02-28 00:55:00
7:15 PM,35.6,24.8,65,30.06,10.0,NE,4.6,-,N/A,,Clear,40,2014-02-28 01:15:00
7:35 PM,33.8,24.8,70,30.06,10.0,NE,3.5,-,N/A,,Clear,40,2014-02-28 01:35:00
7:55 PM,35.6,23.0,60,30.06,10.0,ENE,3.5,-,N/A,,Clear,60,2014-02-28 01:55:00
8:15 PM,35.6,23.0,60,30.06,10.0,Calm,Calm,-,N/A,,Clear,0,2014-02-28 02:15:00
8:35 PM,33.8,21.2,60,30.06,10.0,Calm,Calm,-,N/A,,Clear,0,2014-02-28 02:35:00
8:55 PM,33.8,21.2,60,30.06,10.0,East,3.5,-,N/A,,Clear,100,2014-02-28 02:55:00
9:15 PM,32.0,23.0,69,30.07,10.0,ESE,3.5,-,N/A,,Clear,110,2014-02-28 03:15:00
9:35 PM,33.8,23.0,65,30.08,10.0,Calm,Calm,-,N/A,,Clear,0,2014-02-28 03:35:00
9:55 PM,33.8,23.0,65,30.08,10.0,Calm,Calm,-,N/A,,Clear,0,2014-02-28 03:55:00
10:15 PM,32.0,24.8,75,30.08,10.0,Calm,Calm,-,N/A,,Clear,0,2014-02-28 04:15:00
10:35 PM,32.0,24.8,75,30.08,10.0,Calm,Calm,-,N/A,,Clear,0,2014-02-28 04:35:00
10:55 PM,32.0,23.0,69,30.07,10.0,Calm,Calm,-,N/A,,Clear,0,2014-02-28 04:55:00
11:15 PM,32.0,23.0,69,30.06,10.0,East,6.9,-,N/A,,Clear,80,2014-02-28 05:15:00
11:35 PM,32.0,23.0,69,30.06,10.0,ENE,3.5,-,N/A,,Clear,70,2014-02-28 05:35:00
11:55 PM,33.8,21.2,60,30.06,10.0,East,5.8,-,N/A,,Clear,80,2014-02-28 05:55:00